This demonstration page uses our WeatherBlox Daily Observations layout. Learn more.

Left ArrowRight Arrow

Hourly Observations for January 13, 2022

Temp ( °F °C ) Dew Point ( °F °C ) Humidity (%) Winds ( mph kmh ) Pressure ( in mb ) Visibility ( mi km ) Precip ( " mm )
12:53 am 00:53 Clear 32 0 28 -2.2 85 85 Calm 30.17 1022 10 16 0.00 0.00
1:53 am 01:53 Clear 33 0.6 30 -1.1 89 89 Calm 30.14 1021 10 16 0.00 0.00
2:53 am 02:53 Clear 33 0.6 29 -1.7 85 85 Calm 30.12 1020 10 16 0.00 0.00
3:53 am 03:53 Clear 33 0.6 29 -1.7 85 85 Calm 30.10 1019 10 16 0.00 0.00
4:53 am 04:53 Clear 32 0 29 -1.7 88 88 Calm 30.09 1019 10 16 0.00 0.00
5:53 am 05:53 Clear 34 1.1 30 -1.1 85 85 Calm 30.07 1018 10 16 0.00 0.00
6:53 am 06:53 Clear 34 1.1 30 -1.1 85 85 Calm 30.08 1019 10 16 0.00 0.00
7:53 am 07:53 Sunny 33 0.6 29 -1.7 85 85 Calm 30.06 1018 10 16 0.00 0.00
8:53 am 08:53 Mostly Cloudy 36 2.2 32 0 86 86 SW 3 6 30.06 1018 10 16 0.00 0.00
9:53 am 09:53 Sunny 41 5 33 0.6 73 73 SW 5 7 30.04 1017 10 16 0.00 0.00
10:53 am 10:53 Sunny 47 8.3 31 -0.6 54 54 SW 9 15 30.01 1016 10 16 0.00 0.00
11:53 am 11:53 Sunny 52 11.1 32 0 47 47 SSW 8 13 29.96 1015 10 16 0.00 0.00
12:53 pm 12:53 Sunny 55 12.8 32 0 42 42 SW 9 15 29.90 1013 10 16 0.00 0.00
1:53 pm 13:53 Sunny 58 14.4 32 0 38 38 WSW 9 15 29.87 1012 10 16 0.00 0.00
2:53 pm 14:53 Mostly Sunny 57 13.9 30 -1.1 36 36 WSW 12 19 29.85 1011 10 16 0.00 0.00
3:53 pm 15:53 Sunny 58 14.4 31 -0.6 36 36 W 13 20 29.85 1011 10 16 0.00 0.00
4:53 pm 16:53 Mostly Cloudy 58 14.4 30 -1.1 35 35 NW 10 17 29.84 1011 10 16 0.00 0.00
5:53 pm 17:53 Cloudy 55 12.8 31 -0.6 40 40 NW 8 13 29.85 1011 10 16 0.00 0.00
6:53 pm 18:53 Cloudy with Light Rain 53 11.7 35 1.7 51 51 WNW 16 26 29.88 1012 10 16 0.00 0.00
7:53 pm 19:53 Cloudy 52 11.1 35 1.7 53 53 WNW 15 24 29.90 1012 10 16 0.00 0.00
8:53 pm 20:53 Cloudy 52 11.1 34 1.1 50 50 WNW 8 13 29.90 1013 10 16 0.00 0.00
9:53 pm 21:53 Clear 48 8.9 35 1.7 61 61 N 6 9 29.91 1013 10 16 0.00 0.00
10:53 pm 22:53 Clear 46 7.8 35 1.7 66 66 NW 5 7 29.92 1013 10 16 0.00 0.00
11:53 pm 23:53 Clear 44 6.7 35 1.7 71 71 Calm 29.91 1013 10 16 0.00 0.00

Powered by AerisWeather